Regional Weather Roundup
Issued by NWS Albany, NY

Home | Current Version | Previous Version | Text Only | Print | Product List | Glossary On
Versions: 1 2 3 4 5 6 7 8 9 10 11 12 13 14 15 16 17 18 19 20 21 22 23 24 25 26 27 28
000
ASUS41 KALY 231810
RWRALY

NEW YORK STATE HOURLY WEATHER ROUNDUP
NATIONAL WEATHER SERVICE ALBANY NY
200 PM EDT THU OCT 23 2014

NOTE: "FAIR" INDICATES FEW OR NO CLOUDS BELOW 12,000 FEET WITH NO
SIGNIFICANT WEATHER AND/OR NO OBSTRUCTIONS TO VISIBILITY.

NYZ032-033-038>043-046>054-057>066-NYZ062>081-231900-
EAST


CITY           SKY/WX    TMP DP  RH WIND       PRES   REMARKS
ALBANY         LGT RAIN  48  44  86 N14       29.83R
GLENS FALLS    CLOUDY    48  43  82 N18G25    29.83F
POUGHKEEPSIE   CLOUDY    49  45  86 N16G24    29.75F
NEWBURGH       LGT RAIN  50  48  93 NE12G23   29.75F FOG
MONTGOMERY     LGT RAIN  51  48  89 N9        29.74S
WHITE PLAINS   LGT RAIN  49  45  86 N23G31    29.67F
ISLIP          LGT RAIN  52  49  89 NW17G26   29.62S FOG
NEW YORK CITY  LGT RAIN  52  46  82 N18G26    29.69F
CENTRAL PARK   LGT RAIN  51  48  89 VRB5      29.73S
$$

NYZ005>009-017-018-044>046-055-056-231900-
CENTRAL


CITY           SKY/WX    TMP DP  RH WIND       PRES   REMARKS
FULTON         CLOUDY    53  40  61 N18G24    29.97F
SYRACUSE       CLOUDY    54  41  61 NW15G23   29.94F
ROME           CLOUDY    50  41  71 N12G18    29.92F
ELMIRA         CLOUDY    54  44  69 N13G21    29.93F
BINGHAMTON     CLOUDY    47  41  80 N21       29.87F
MONTICELLO     CLOUDY    46  45  93 N17G23    29.78S
$$

NYZ026>034-041>043-231900-
NORTH


CITY           SKY/WX    TMP DP  RH WIND       PRES   REMARKS
WATERTOWN      CLOUDY    55  38  52 N22G28    29.97F
FORT DRUM      NOT AVBL
MASSENA        CLOUDY    50  39  66 NE15      30.02F
SARANAC LAKE   LGT RAIN  41  39  93 NE10      29.92F FOG
PLATTSBURGH    LGT RAIN  45  43  93 N17       29.96S
$$

NYZ001>004-010>016-019>021-231900-
WEST


CITY           SKY/WX    TMP DP  RH WIND       PRES   REMARKS
NIAGARA FALLS  MOSUNNY   56  40  55 NW13      30.08F
BUFFALO        MOSUNNY   58  40  51 NW10      30.07F
DUNKIRK        SUNNY     56  41  57 N8        30.11F
JAMESTOWN      SUNNY     54  37  54 N14G22    30.08F
WELLSVILLE     CLOUDY    54  38  54 N17G26    30.00F
ROCHESTER      PTSUNNY   56  39  53 NW15G24   30.02F
PENN YAN       CLOUDY    53  42  66 N12G23    29.97F
$$

             KEY
       WCI = WIND CHILL INDEX
       VSB = VISIBILITY
       HX  = HEAT INDEX
$$



USA.gov is the U.S. government's official web portal to all federal, state and local government web resources and services.